GW3793 Weather Reports


Display with metric or nautical units.
time (UTC)temp
F
wind
direction
speed
MPH
gust
MPH
rain 1hr
in
rain 24hr
in
rain mn
in
humidity
%
barometer
mb
20260505232703 71 232 2.0 5.0 0.00 0.00 0.00 27 1013.3
20260505232018 71 178 3.0 9.0 0.00 0.00 0.00 25 1013.4
20260505230903 71 187 3.0 10.0 0.00 0.00 0.00 26 1013.4
20260505230003 71 252 2.0 8.0 0.00 0.00 0.00 26 1013.3
20260505225403 72 237 2.0 5.0 0.00 0.00 0.00 26 1013.5
20260505224718 72 244 2.0 6.0 0.00 0.00 0.00 27 1013.5
20260505223817 72 224 2.0 6.0 0.00 0.00 0.00 26 1013.8
20260505222703 72 235 2.0 8.0 0.00 0.00 0.00 26 1013.7
20260505222018 72 213 2.0 10.0 0.00 0.00 0.00 26 1013.9
20260505220903 72 244 2.0 5.0 0.00 0.00 0.00 27 1013.9
20260505220003 73 217 2.0 7.0 0.00 0.00 0.00 26 1014.2
20260505215403 73 201 2.0 6.0 0.00 0.00 0.00 26 1014.1
20260505214503 73 198 3.0 7.0 0.00 0.00 0.00 27 1014.3
20260505213603 72 209 2.0 6.0 0.00 0.00 0.00 27 1014.3
20260505212703 73 176 3.0 7.0 0.00 0.00 0.00 26 1014.2
20260505211803 72 184 3.0 8.0 0.00 0.00 0.00 28 1014.6
20260505210903 72 193 2.0 8.0 0.00 0.00 0.00 29 1014.8
20260505210003 71 233 2.0 4.0 0.00 0.00 0.00 30 1014.6
20260505205404 71 206 3.0 7.0 0.00 0.00 0.00 30 1014.8
20260505204503 70 254 1.0 4.0 0.00 0.00 0.00 31 1015.0
20260505203604 69 262 2.0 6.0 0.00 0.00 0.00 32 1014.9
20260505202703 69 261 2.0 5.0 0.00 0.00 0.00 31 1015.0
20260505201803 69 218 2.0 5.0 0.00 0.00 0.00 32 1015.1
20260505201116 69 270 2.0 5.0 0.00 0.00 0.00 30 1014.9
20260505200218 70 213 2.0 5.0 0.00 0.00 0.00 29 1014.9
20260505195403 70 176 2.0 6.0 0.00 0.00 0.00 32 1015.0
20260505194503 70 179 4.0 7.0 0.00 0.00 0.00 31 1015.2
20260505193603 70 183 4.0 7.0 0.00 0.00 0.00 33 1015.2
20260505192703 70 175 4.0 9.0 0.00 0.00 0.00 32 1015.3
20260505191803 69 171 4.0 9.0 0.00 0.00 0.00 32 1015.3
20260505190903 69 179 4.0 9.0 0.00 0.00 0.00 31 1015.3
20260505190004 69 175 3.0 7.0 0.00 0.00 0.00 33 1015.7
20260505185403 68 174 3.0 8.0 0.00 0.00 0.00 35 1015.6
20260505184503 67 168 3.0 8.0 0.00 0.00 0.00 32 1015.6
20260505183603 66 166 3.0 7.0 0.00 0.00 0.00 33 1015.6
20260505182703 67 195 3.0 7.0 0.00 0.00 0.00 35 1015.8
20260505181803 67 167 3.0 10.0 0.00 0.00 0.00 33 1015.7
20260505180903 67 174 4.0 7.0 0.00 0.00 0.00 35 1015.8
20260505180003 66 169 4.0 9.0 0.00 0.00 0.00 35 1015.9
20260505175403 66 169 4.0 7.0 0.00 0.00 0.00 35 1016.2
20260505174503 65 167 4.0 7.0 0.00 0.00 0.00 36 1015.8
20260505173603 64 161 3.0 6.0 0.00 0.00 0.00 35 1015.8
20260505172703 64 176 4.0 7.0 0.00 0.00 0.00 33 1015.9
20260505171803 63 177 4.0 7.0 0.00 0.00 0.00 36 1016.0
20260505170903 63 162 4.0 6.0 0.00 0.00 0.00 34 1016.2
20260505170003 62 173 3.0 6.0 0.00 0.00 0.00 38 1016.0
20260505165403 62 170 3.0 6.0 0.00 0.00 0.00 38 1016.2
20260505164718 62 174 3.0 6.0 0.00 0.00 0.00 38 1015.9
20260505163603 60 164 3.0 6.0 0.00 0.00 0.00 42 1016.1
20260505162703 60 164 3.0 6.0 0.00 0.00 0.00 43 1016.2
20260505161803 60 168 4.0 7.0 0.00 0.00 0.00 43 1016.2
20260505160903 59 169 4.0 7.0 0.00 0.00 0.00 44 1016.1
20260505152703 56 160 2.0 5.0 0.00 0.00 0.00 52 1016.4
20260505151803 54 142 2.0 6.0 0.00 0.00 0.00 50 1015.9
20260505150903 53 173 3.0 5.0 0.00 0.00 0.00 60 1016.0
20260505124503 38 115 0.0 2.0 0.00 0.00 0.00 73 1015.6
20260505123603 38 107 0.0 1.0 0.00 0.00 0.00 72 1015.6
20260505122703 38 68 0.0 2.0 0.00 0.00 0.00 73 1015.2
20260505121803 38 34 0.0 2.0 0.00 0.00 0.00 72 1015.6
20260505121117 38 0 0.0 0.0 0.00 0.00 0.00 72 1015.3
20260505120003 39 40 0.0 1.0 0.00 0.00 0.00 71 1015.3
20260505115403 39 0 0.0 0.0 0.00 0.00 0.00 71 1015.3
20260505114718 39 135 0.0 1.0 0.00 0.00 0.00 72 1015.2
20260505113817 39 0 0.0 0.0 0.00 0.00 0.00 72 1015.3
20260505112703 40 0 0.0 0.0 0.00 0.00 0.00 72 1015.2
20260505111803 40 14 0.0 1.0 0.00 0.00 0.00 72 1015.1
20260505110903 40 25 0.0 2.0 0.00 0.00 0.00 72 1015.2
20260505110218 40 21 0.0 2.0 0.00 0.00 0.00 71 1015.3
20260505101803 41 23 0.0 1.0 0.00 0.00 0.00 75 1015.1
20260505100903 41 18 0.0 1.0 0.00 0.00 0.00 74 1015.0
20260505100003 42 0 0.0 0.0 0.00 0.00 0.00 75 1015.0
20260505095618 42 0 0.0 0.0 0.00 0.00 0.00 71 1014.8
20260505094717 42 173 0.0 1.0 0.00 0.00 0.00 68 1014.9
20260505093818 42 179 0.0 2.0 0.00 0.00 0.00 66 1014.8
20260505092918 42 154 0.0 2.0 0.00 0.00 0.00 66 1014.9
20260505091803 42 43 0.0 1.0 0.00 0.00 0.00 67 1014.9
20260505090903 43 23 0.0 1.0 0.00 0.00 0.00 68 1015.0
20260505090003 43 130 0.0 2.0 0.00 0.00 0.00 67 1015.0
20260505085617 43 166 0.0 2.0 0.00 0.00 0.00 66 1015.2
20260505084503 43 179 0.0 1.0 0.00 0.00 0.00 65 1014.9
20260505083603 44 180 0.0 1.0 0.00 0.00 0.00 64 1014.9
20260505082703 44 166 0.0 1.0 0.00 0.00 0.00 63 1014.9
20260505081803 45 157 0.0 2.0 0.00 0.00 0.00 62 1014.7
20260505081118 45 175 0.0 2.0 0.00 0.00 0.00 62 1014.8
20260505080003 45 135 0.0 1.0 0.00 0.00 0.00 61 1014.9
20260505075403 46 159 0.0 2.0 0.00 0.00 0.00 62 1014.9
20260505074503 46 149 0.0 2.0 0.00 0.00 0.00 59 1014.7
20260505073603 47 152 0.0 1.0 0.00 0.00 0.00 58 1014.8
20260505072703 48 157 0.0 2.0 0.00 0.00 0.00 57 1014.7
20260505071803 49 149 1.0 2.0 0.00 0.00 0.00 55 1014.3
20260505070903 49 104 1.0 4.0 0.00 0.00 0.00 54 1014.4
20260505070003 49 20 1.0 3.0 0.00 0.00 0.00 54 1014.3
20260505065403 49 25 1.0 2.0 0.00 0.00 0.00 54 1014.6
20260505064503 49 14 1.0 2.0 0.00 0.00 0.00 55 1014.3
20260505063603 49 14 2.0 3.0 0.00 0.00 0.00 55 1014.2
20260505062703 49 13 1.0 2.0 0.00 0.00 0.00 55 1014.3
20260505061803 49 12 1.0 2.0 0.00 0.00 0.00 55 1014.4
20260505060903 50 16 1.0 2.0 0.00 0.00 0.00 55 1014.2
20260505060003 50 16 1.0 2.0 0.00 0.00 0.00 55 1014.0
20260505055403 50 34 0.0 2.0 0.00 0.00 0.00 55 1014.2
20260505054503 50 22 1.0 2.0 0.00 0.00 0.00 54 1014.0
20260505053603 51 21 1.0 2.0 0.00 0.00 0.00 54 1014.2
20260505052703 51 25 1.0 2.0 0.00 0.00 0.00 54 1014.1
20260505051803 51 17 1.0 2.0 0.00 0.00 0.00 54 1013.7
20260505050903 51 32 1.0 2.0 0.00 0.00 0.00 54 1013.8
20260505040903 53 355 2.0 4.0 0.00 0.00 0.00 53 1013.4
20260505040003 54 356 1.0 3.0 0.00 0.00 0.00 53 1013.3
20260505035618 54 358 1.0 3.0 0.00 0.00 0.00 52 1013.0
20260505034503 55 3 1.0 2.0 0.00 0.00 0.00 50 1013.0
20260505033603 56 2 1.0 2.0 0.00 0.00 0.00 50 1013.1
20260505032703 57 1 0.0 3.0 0.00 0.00 0.00 47 1013.3
20260505031803 59 2 0.0 2.0 0.00 0.00 0.00 45 1013.1
20260505030903 60 3 0.0 2.0 0.00 0.00 0.00 43 1012.8
20260505030003 61 357 0.0 2.0 0.00 0.00 0.00 40 1013.0
20260505025403 62 26 0.0 3.0 0.00 0.00 0.00 39 1012.8
20260505024503 63 6 1.0 5.0 0.00 0.00 0.00 38 1012.6
20260505023603 63 339 1.0 5.0 0.00 0.00 0.00 38 1012.6
20260505022703 64 314 1.0 4.0 0.00 0.00 0.00 37 1012.9
20260505022017 64 2 2.0 9.0 0.00 0.00 0.00 36 1012.9
20260505020903 65 354 2.0 10.0 0.00 0.00 0.00 34 1013.0
20260505020003 65 360 2.0 8.0 0.00 0.00 0.00 35 1013.1
20260505015403 65 6 2.0 7.0 0.00 0.00 0.00 34 1013.0
20260505014718 65 345 2.0 7.0 0.00 0.00 0.00 34 1012.9
20260505013603 66 7 2.0 11.0 0.00 0.00 0.00 34 1013.1
20260505012703 66 11 3.0 9.0 0.00 0.00 0.00 34 1012.6
20260505011803 66 355 2.0 10.0 0.00 0.00 0.00 34 1013.0
20260505011117 66 5 3.0 10.0 0.00 0.00 0.00 33 1013.0
20260505010003 67 345 2.0 8.0 0.00 0.00 0.00 33 1012.9
20260505005617 67 360 3.0 11.0 0.00 0.00 0.00 33 1012.8
20260505004503 67 6 2.0 9.0 0.00 0.00 0.00 32 1013.0
20260505003603 68 340 2.0 13.0 0.00 0.00 0.00 32 1013.0
20260505002703 68 273 1.0 4.0 0.00 0.00 0.00 33 1013.1
20260505001803 67 278 1.0 4.0 0.00 0.00 0.00 32 1012.9
20260505000903 68 284 2.0 6.0 0.00 0.00 0.00 33 1013.2
20260505000218 68 289 2.0 6.0 0.00 0.00 0.00 33 1012.9
20260504235403 67 301 2.0 12.0 0.00 0.00 0.00 33 1013.2
20260504234503 67 40 2.0 12.0 0.00 0.00 0.00 32 1013.2